This demonstration page uses our WeatherBlox Daily Observations layout. Learn more.

Left ArrowRight Arrow

36.17497, -115.13722

Hourly Observations for February 16, 2019

Temp ( °F °C ) Dew Point ( °F °C ) Humidity (%) Winds ( mph kmh ) Pressure ( in mb ) Visibility ( mi km ) Precip ( " mm )
12:53 am 00:53 Clear 48 8.9 28 -2.2 46 46 NW 16 26 29.86 1011 10 16 0.00 0.00
1:25 am 01:25 Clear 49 9.4 26 -3.3 41 41 W 25 41 29.84 1010 10 16 0.00 0.00
1:53 am 01:53 Clear 48 8.9 27 -2.8 44 44 W 10 17 29.88 1012 10 16 0.00 0.00
2:53 am 02:53 Clear 45 7.2 30 -1.1 56 56 NW 26 43 29.92 1013 10 16 0.00 0.00
3:53 am 03:53 Mostly Cloudy 42 5.6 32 0 68 68 NNW 15 24 29.94 1014 10 16 0.00 0.00
4:53 am 04:53 Clear 41 5 31 -0.6 67 67 NNW 14 22 29.95 1014 10 16 0.00 0.00
5:53 am 05:53 Clear 41 5 31 -0.6 67 67 WNW 8 13 29.99 1016 10 16 0.00 0.00
6:53 am 06:53 Sunny 41 5 31 -0.6 67 67 NNW 10 17 30.01 1016 10 16 0.00 0.00
7:53 am 07:53 Sunny 43 6.1 32 0 65 65 NNW 14 22 30.04 1017 10 16 0.00 0.00
8:53 am 08:53 Sunny 47 8.3 31 -0.6 54 54 NNW 13 20 30.04 1017 10 16 0.00 0.00
9:53 am 09:53 Sunny 50 10 21 -6.1 32 32 NNW 13 20 30.04 1017 10 16 0.00 0.00
10:53 am 10:53 Sunny 53 11.7 17 -8.3 24 24 NW 15 24 30.03 1017 10 16 0.00 0.00
11:53 am 11:53 Sunny 52 11.1 20 -6.7 28 28 WNW 7 11 30.00 1016 10 16 0.00 0.00
12:53 pm 12:53 Mostly Cloudy 53 11.7 24 -4.4 32 32 Calm 29.98 1015 10 16 0.00 0.00
1:53 pm 13:53 Mostly Sunny 52 11.1 29 -1.7 41 41 SSW 15 24 29.96 1015 10 16 0.00 0.00
2:53 pm 14:53 Partly Cloudy 51 10.6 27 -2.8 39 39 S 9 15 29.96 1014 10 16 0.00 0.00
3:53 pm 15:53 Cloudy with Light Rain 51 10.6 27 -2.8 39 39 VRB 5 7 29.94 1014 10 16 0.00 0.03
4:53 pm 16:53 Partly Cloudy 52 11.1 28 -2.2 40 40 SSE 5 7 29.92 1013 10 16 0.00 0.03
5:53 pm 17:53 Mostly Clear 50 10 28 -2.2 43 43 S 6 9 29.92 1013 10 16 0.00 0.00
6:53 pm 18:53 Clear 49 9.4 26 -3.3 41 41 SSW 8 13 29.91 1013 10 16 0.00 0.00
7:53 pm 19:53 Clear 47 8.3 29 -1.7 50 50 S 8 13 29.91 1013 10 16 0.00 0.00
8:53 pm 20:53 Cloudy 45 7.2 30 -1.1 56 56 WNW 32 52 29.93 1014 10 16 0.00 0.00
9:00 pm 21:00 Cloudy 44 6.7 30 -1.1 58 58 NW 31 50 29.91 1013 10 16 0.00 0.00
9:53 pm 21:53 Cloudy 42 5.6 32 0 68 68 WNW 22 35 29.99 1016 10 16 0.00 0.00
10:53 pm 22:53 Cloudy 42 5.6 32 0 68 68 WNW 7 11 29.98 1015 10 16 0.00 0.03
11:53 pm 23:53 Cloudy 42 5.6 31 -0.6 65 65 N 6 9 29.96 1015 10 16 0.00 0.00

Powered by AerisWeather